FW7501 Weather Reports


Display with metric or nautical units.
time (UTC)temp
F
wind
direction
speed
MPH
gust
MPH
rain 1hr
in
rain 24hr
in
rain mn
in
humidity
%
barometer
mb
20260504034507 57 359 14.0 25.0 0.00 0.00 0.00 67 1010.8
20260504034003 57 14 10.0 24.0 0.00 0.01 0.00 68 1011.0
20260504033506 57 320 11.0 27.0 0.00 0.01 0.00 68 1010.9
20260504033003 57 15 14.0 29.0 0.00 0.01 0.00 68 1010.9
20260504032503 57 6 15.0 29.0 0.00 0.02 0.00 68 1010.9
20260504032003 57 6 14.0 27.0 0.00 0.03 0.00 68 1011.0
20260504031503 57 351 14.0 33.0 0.00 0.03 0.00 67 1010.9
20260504031003 57 353 12.0 33.0 0.00 0.03 0.00 68 1010.9
20260504030503 58 4 16.0 30.0 0.00 0.04 0.00 67 1010.8
20260504030005 59 332 19.0 30.0 0.00 0.04 0.00 65 1010.7
20260504025504 58 15 16.0 30.0 0.00 0.07 0.00 66 1010.8
20260504025003 59 352 17.0 31.0 0.00 0.07 0.00 66 1010.9
20260504024509 58 39 16.0 32.0 0.00 0.07 0.00 66 1010.9
20260504024005 59 335 20.0 32.0 0.00 0.07 0.00 66 1010.9
20260504023503 58 358 17.0 30.0 0.00 0.07 0.00 66 1011.1
20260504023014 58 315 21.0 33.0 0.00 0.07 0.00 65 1011.1
20260504022503 58 31 16.0 33.0 0.00 0.07 0.00 66 1011.1
20260504022008 58 9 16.0 35.0 0.00 0.07 0.00 67 1011.5
20260504021513 58 3 20.0 35.0 0.00 0.07 0.00 66 1011.5
20260504021004 58 350 19.0 33.0 0.00 0.07 0.00 67 1011.7
20260504020503 58 326 17.0 25.0 0.00 0.08 0.00 68 1011.7
20260504020004 58 333 13.0 29.0 0.00 0.08 0.00 70 1011.8
20260504015504 57 345 15.0 29.0 0.00 0.08 0.00 70 1011.8
20260504015006 57 346 13.0 29.0 0.00 0.08 0.00 70 1011.9
20260504014508 57 2 12.0 23.0 0.00 0.08 0.00 73 1012.0
20260504014005 56 350 12.0 31.0 0.00 0.08 0.00 73 1012.2
20260504013507 56 335 13.0 31.0 0.00 0.08 0.00 73 1012.2
20260504013008 57 348 16.0 30.0 0.00 0.09 0.00 75 1012.1
20260504012504 56 328 18.0 26.0 0.00 0.11 0.00 74 1012.1
20260504012006 56 343 13.0 28.0 0.00 0.14 0.00 74 1012.1
20260504011503 56 349 12.0 28.0 0.00 0.15 0.00 76 1012.1
20260504011012 56 338 16.0 29.0 0.00 0.17 0.00 75 1012.1
20260504010504 56 339 17.0 29.0 0.00 0.19 0.00 74 1011.9
20260504010023 56 344 10.0 31.0 0.00 0.22 0.00 75 1011.9
20260504005507 56 18 12.0 31.0 0.00 0.25 0.00 76 1012.0
20260504005004 56 8 14.0 33.0 0.00 0.27 0.00 76 1011.9
20260504004507 55 21 14.0 33.0 0.00 0.29 0.00 76 1011.8
20260504004003 55 350 17.0 33.0 0.00 0.37 0.00 76 1011.9
20260504003503 56 359 12.0 26.0 0.00 0.40 0.00 77 1012.1
20260504003010 56 328 11.0 26.0 0.00 0.44 0.00 78 1012.0
20260504002504 55 9 11.0 31.0 0.00 0.45 0.00 78 1012.1
20260504002007 54 343 15.0 31.0 0.00 0.47 0.00 79 1012.0
20260504001515 55 2 14.0 31.0 0.00 0.48 0.00 78 1012.1
20260504001003 55 333 16.0 31.0 0.00 0.48 0.00 77 1012.2
20260504000507 55 351 11.0 23.0 0.00 0.49 0.00 79 1012.3
20260504000010 55 341 14.0 26.0 0.00 0.51 0.00 78 1012.3
20260503235507 55 40 12.0 26.0 0.00 0.55 0.00 79 1012.2
20260503235008 54 6 14.0 24.0 0.00 0.58 0.00 78 1011.9
20260503234508 54 8 13.0 27.0 0.00 0.59 0.00 79 1012.0
20260503234010 53 9 11.0 31.0 0.00 0.60 0.00 79 1012.1
20260503233508 54 358 13.0 31.0 0.00 0.61 0.00 79 1012.0
20260503233009 53 351 14.0 25.0 0.00 0.61 0.00 80 1012.1
20260503232506 53 22 14.0 25.0 0.00 0.61 0.00 79 1012.3
20260503232007 53 17 11.0 22.0 0.00 0.61 0.00 79 1012.4
20260503231514 53 16 13.0 22.0 0.00 0.61 0.00 79 1012.4
20260503231008 53 12 13.0 22.0 0.00 0.61 0.00 80 1012.7
20260503230509 53 22 11.0 23.0 0.00 0.61 0.00 80 1012.7
20260503230019 53 346 12.0 24.0 0.00 0.61 0.00 80 1012.6
20260503225507 53 8 9.0 24.0 0.00 0.61 0.00 80 1012.6
20260503225014 53 10 12.0 23.0 0.00 0.61 0.00 80 1012.6
20260503224527 53 15 12.0 21.0 0.00 0.61 0.00 79 1012.7
20260503224010 54 344 12.0 21.0 0.00 0.61 0.00 80 1012.7
20260503223507 53 49 11.0 21.0 0.00 0.61 0.00 81 1012.5
20260503223018 53 21 11.0 21.0 0.00 0.61 0.00 81 1012.4
20260503222507 52 15 10.0 21.0 0.00 0.61 0.00 81 1012.3
20260503222007 52 16 11.0 18.0 0.00 0.61 0.00 81 1012.3
20260503221516 52 2 8.0 22.0 0.00 0.61 0.00 82 1012.3
20260503221008 52 355 9.0 22.0 0.00 0.61 0.00 81 1012.4
20260503220508 52 347 8.0 19.0 0.00 0.61 0.00 82 1012.3
20260503220021 52 4 7.0 19.0 0.00 0.61 0.00 82 1012.5
20260503215508 52 4 7.0 19.0 0.00 0.61 0.00 82 1012.6
20260503215010 52 6 9.0 21.0 0.00 0.61 0.00 82 1012.6
20260503214510 52 23 9.0 21.0 0.00 0.61 0.00 82 1012.7
20260503214008 52 37 9.0 21.0 0.00 0.61 0.00 82 1012.7
20260503213508 52 348 9.0 17.0 0.00 0.61 0.00 82 1012.7
20260503213021 52 358 8.0 17.0 0.00 0.61 0.00 82 1012.7
20260503212515 52 337 10.0 17.0 0.00 0.61 0.00 82 1012.5
20260503212007 51 360 9.0 16.0 0.00 0.61 0.00 82 1012.4
20260503211527 51 57 3.0 14.0 0.00 0.61 0.00 82 1012.4
20260503211007 51 19 5.0 14.0 0.00 0.61 0.00 82 1012.3
20260503210510 51 7 4.0 14.0 0.00 0.61 0.00 82 1012.3
20260503210023 51 341 6.0 13.0 0.00 0.61 0.00 82 1012.3
20260503205507 51 23 8.0 13.0 0.00 0.61 0.00 82 1012.2
20260503205004 51 24 4.0 11.0 0.00 0.61 0.00 83 1012.3
20260503204515 51 8 6.0 11.0 0.00 0.61 0.00 83 1012.4
20260503204008 52 331 4.0 12.0 0.00 0.62 0.00 83 1012.5
20260503203510 52 24 6.0 13.0 0.00 0.62 0.00 83 1012.5
20260503203019 52 330 5.0 13.0 0.00 0.62 0.00 83 1012.5
20260503202509 51 51 6.0 13.0 0.00 0.62 0.00 83 1012.4
20260503202010 51 31 5.0 13.0 0.00 0.63 0.00 82 1012.3
20260503201518 51 19 7.0 12.0 0.00 0.63 0.00 82 1012.4
20260503201013 51 20 7.0 16.0 0.00 0.63 0.00 83 1012.2
20260503200510 51 37 8.0 16.0 0.00 0.63 0.00 83 1012.2
20260503200016 51 2 6.0 16.0 0.00 0.64 0.00 84 1012.2
20260503195510 51 4 6.0 16.0 0.00 0.64 0.00 84 1012.1
20260503195010 51 32 5.0 10.0 0.00 0.65 0.00 84 1012.0
20260503194531 51 44 3.0 10.0 0.00 0.65 0.00 84 1011.9
20260503194007 51 9 3.0 10.0 0.00 0.66 0.00 84 1012.0
20260503193512 51 47 4.0 11.0 0.00 0.66 0.00 84 1012.1
20260503193017 51 26 6.0 12.0 0.00 0.66 0.00 84 1012.1
20260503192509 51 346 5.0 12.0 0.00 0.66 0.00 84 1012.2
20260503192008 51 27 4.0 11.0 0.00 0.66 0.00 84 1012.3
20260503191520 51 1 6.0 12.0 0.00 0.66 0.00 85 1012.3
20260503191010 51 15 5.0 12.0 0.00 0.66 0.00 85 1012.3
20260503190509 51 21 4.0 12.0 0.00 0.66 0.00 85 1012.3
20260503190026 51 18 3.0 10.0 0.00 0.66 0.00 85 1012.3
20260503185506 51 37 4.0 10.0 0.00 0.66 0.00 85 1012.3
20260503185013 51 295 3.0 10.0 0.00 0.66 0.00 85 1012.4
20260503184511 51 33 4.0 10.0 0.00 0.67 0.00 84 1012.5
20260503184002 51 28 3.0 8.0 0.00 0.67 0.00 85 1012.5
20260503183504 51 54 3.0 12.0 0.00 0.68 0.00 85 1012.6
20260503183004 51 360 3.0 12.0 0.00 0.68 0.00 85 1012.7
20260503182503 51 18 3.0 10.0 0.00 0.69 0.00 84 1012.7
20260503182004 51 54 3.0 10.0 0.00 0.69 0.00 85 1012.7
20260503181504 51 58 3.0 12.0 0.00 0.69 0.00 84 1012.7
20260503181005 51 15 4.0 12.0 0.00 0.69 0.00 84 1012.8
20260503180504 51 14 3.0 12.0 0.00 0.69 0.00 84 1012.9
20260503180005 51 84 4.0 12.0 0.00 0.69 0.00 84 1013.0
20260503175504 51 29 3.0 9.0 0.00 0.69 0.00 84 1012.9
20260503175003 51 57 3.0 9.0 0.00 0.69 0.00 84 1012.9
20260503174504 51 10 2.0 11.0 0.00 0.69 0.00 84 1012.9
20260503174003 51 351 5.0 12.0 0.00 0.69 0.00 84 1012.9
20260503173504 51 34 3.0 12.0 0.00 0.69 0.00 84 1013.0
20260503173005 52 29 4.0 9.0 0.00 0.69 0.00 85 1013.0
20260503172504 51 29 4.0 12.0 0.00 0.69 0.00 85 1013.1
20260503172004 51 28 2.0 14.0 0.00 0.69 0.00 84 1013.1
20260503171509 51 12 6.0 14.0 0.00 0.69 0.00 84 1013.0
20260503171003 51 33 5.0 12.0 0.00 0.69 0.00 84 1013.0
20260503170503 51 31 2.0 8.0 0.00 0.69 0.00 84 1013.0
20260503151003 52 54 4.0 14.0 0.00 0.69 0.00 83 1013.4
20260503131006 53 343 7.0 17.0 0.00 0.69 0.69 82 1013.9
20260503090510 53 9 0.0 5.0 0.00 0.69 0.69 79 1013.8
20260503081506 53 17 3.0 8.0 0.00 0.69 0.69 77 1012.5
20260503081005 53 360 1.0 5.0 0.00 0.69 0.69 77 1012.4
20260503080508 53 14 1.0 5.0 0.00 0.69 0.69 77 1012.4
20260503072505 56 9 5.0 9.0 0.00 0.69 0.69 73 1012.6
20260503072006 56 354 6.0 12.0 0.00 0.69 0.69 73 1012.5
20260503070508 57 350 8.0 15.0 0.00 0.69 0.69 72 1012.4
20260503054509 59 335 8.0 17.0 0.00 0.69 0.69 81 1011.8
20260503054006 60 344 9.0 18.0 0.00 0.69 0.69 82 1011.7
20260503053502 60 340 10.0 24.0 0.00 0.69 0.69 84 1011.8
20260503053013 59 351 9.0 24.0 0.00 0.69 0.69 85 1011.8
20260503052503 58 332 11.0 22.0 0.00 0.69 0.69 85 1011.7
20260503052006 59 324 10.0 20.0 0.00 0.69 0.69 86 1011.6
20260503051507 58 350 14.0 20.0 0.00 0.69 0.69 86 1011.5
20260503051004 58 308 10.0 19.0 0.00 0.69 0.69 87 1011.5
20260503045008 57 349 11.0 18.0 0.00 0.69 0.69 86 1011.7
20260503044526 57 328 11.0 18.0 0.00 0.69 0.69 85 1011.7
20260503044002 57 319 12.0 21.0 0.01 0.69 0.69 85 1011.8
20260503043510 58 332 12.0 21.0 0.01 0.69 0.69 85 1011.7
20260503043023 58 321 12.0 22.0 0.01 0.69 0.69 85 1011.6
20260503042503 58 308 14.0 24.0 0.02 0.69 0.69 85 1011.5
20260503042008 58 322 13.0 24.0 0.03 0.69 0.69 85 1011.4
20260503041506 60 310 13.0 21.0 0.03 0.69 0.69 87 1011.3
20260503041003 60 324 11.0 21.0 0.03 0.69 0.69 87 1011.2
20260503040505 60 342 12.0 21.0 0.04 0.69 0.69 87 1011.1
20260503040003 60 354 11.0 26.0 0.03 0.68 0.68 87 1011.2
20260503035505 60 356 15.0 26.0 0.07 0.68 0.68 86 1011.2
20260503035004 60 343 16.0 26.0 0.07 0.68 0.68 86 1011.0